Regional Weather Roundup
Issued by NWS

Home | Current Version | Previous Version | Text Only | Print | Product List | Glossary On
Versions: 1 2 3 4 5 6 7 8 9 10 11 12 13 14 15 16 17 18 19 20 21 22 23 24 25 26 27 28 29 30 31 32 33 34 35 36 37 38 39 40 41 42 43 44 45 46 47 48 49 50
798
ASUS46 KSEW 280310
RWRWA

WASHINGTON REGIONAL WEATHER ROUNDUP
NATIONAL WEATHER SERVICE SEATTLE WA
800 PM PDT SAT MAY 27 2017

NOTE:"FAIR" INDICATES FEW OR NO CLOUDS BELOW 12,000 FEET WITH NO
SIGNIFICANT WEATHER AND/OR OBSTRUCTIONS TO VISIBILITY.

WAZ507-509-555>559-280400-
SEATTLE, TACOMA, EVERETT, AND VICINITY

CITY           SKY/WX    TMP DP  RH WIND       PRES   REMARKS
EVERETT        CLEAR     75  49  39 NW3       30.06F
BOEING FIELD   CLEAR     79  52  38 NW7       30.02S
RENTON         CLEAR     77  54  44 NW7       30.02S
SEATAC AIRPORT CLEAR     80  45  28 N8        30.04S
JBLM-MCCHORD   CLEAR     80  48  32 NE6       30.03F
PUYALLUP         N/A     77  45  31 CALM      30.05S
BREMERTON      CLEAR     77  49  37 NE7       30.04S
JBLM-FT LEWIS  CLEAR     82  39  21 NE6       30.05F
TACOMA NARROWS CLEAR     76  46  34 N7        30.03F
$$

WAZ001-503-506-510-514-515-280400-
NORTH INTERIOR

CITY           SKY/WX    TMP DP  RH WIND       PRES   REMARKS
BELLINGHAM     CLEAR     75  51  43 W5        30.03F
FRIDAY HARBOR  CLEAR     67  52  58 SW3       30.05F
EASTSOUND      CLEAR     64  54  68 CALM      30.04S
PORT ANGELES   CLEAR     60  51  72 NW5       30.07F
EDIZ HOOK      FAIR      55  49  81 W15       30.06S
PORT TOWNSEND  FAIR      66  54  63 W5        30.05S
NAS WHIDBEY    CLEAR     59  49  69 W5        30.09S
ARLINGTON      CLEAR     75  50  41 NW10      30.05S
BURLINGTON     CLEAR     70  55  60 W7        30.04S
$$

WAZ020-022-039-040-504-511-512-280400-
SOUTHWEST INTERIOR

CITY           SKY/WX    TMP DP  RH WIND       PRES   REMARKS
SHELTON        CLEAR     80  47  31 E6        30.00S
OLYMPIA        CLEAR     81  46  29 NE5       30.02S
CHEHALIS       FAIR      81  54  39 CALM      30.01S
KELSO          CLEAR     72  57  59 NW6       30.03R
VANCOUVER      CLEAR     87  43  21 NW3       29.97S
SCAPPOOSE, OR  CLEAR     79  59  50 W3        29.97S
PORTLAND, OR   CLEAR     84  44  24 NW5       29.97S
$$

WAZ021-516-517-280400-
WASHINGTON COAST

CITY           SKY/WX    TMP DP  RH WIND       PRES   REMARKS
FORKS          CLEAR     58  50  75 SW6       30.07S
HOQUIAM        CLOUDY    53  53 100 SW14      30.07F FOG
ASTORIA, OR    CLOUDY    52  50  93 W5        30.09S
$$

WAZ019-023-024-040-567>569-280400-
CASCADE MOUNTAINS AND COLUMBIA GORGE

CITY           SKY/WX    TMP DP  RH WIND       PRES   REMARKS
STAMPEDE PASS  CLEAR     65  40  39 VRB3      30.19S
TROUTDALE, OR  CLEAR     85  48  27 CALM      29.97S
THE DALLES, OR CLEAR     84  42  22 E5        29.98S
$$

WAZ026-027-041>044-520-521-280400-
EAST SLOPES

CITY           SKY/WX    TMP DP  RH WIND       PRES   REMARKS
OMAK           CLEAR     78  45  30 S7        30.05S
WENATCHEE      CLEAR     79  43  27 E6        30.04S
ELLENSBURG     CLEAR     79  50  36 E5        30.06S
YAKIMA         CLEAR     82  45  27 SE3       30.04S
SUNNYSIDE ARPT CLEAR     77  48  35 E5        30.03S
$$

WAZ028-034-035-280400-
COLUMBIA BASIN

CITY           SKY/WX    TMP DP  RH WIND       PRES   REMARKS
EPHRATA        CLEAR     79  38  22 SE8       30.05S
MOSES LAKE     CLEAR     81  41  24 SE6       30.06S
PASCO          CLEAR     78  56  46 N6        30.02S
HERMISTON, OR  CLEAR     83  39  21 NE5       30.01F
$$

WAZ036>038-280400-
NORTHEAST WASHINGTON

CITY           SKY/WX    TMP DP  RH WIND       PRES   REMARKS
SPOKANE GEIGER PTCLDY    76  40  27 SW7       30.12S
SPOKANE FELTS  CLEAR     73  46  38 CALM      30.10S
FAIRCHILD AFB  CLEAR     72  50  46 SW5       30.12S
COEURDALENE,ID CLEAR     72  50  45 S3        30.12S
DEER PARK      CLEAR     72  47  40 S6        30.10F
$$

WAZ029>033-280400-
SOUTHEAST WASHINGTON

CITY           SKY/WX    TMP DP  RH WIND       PRES   REMARKS
PULLMAN        CLEAR     73  40  30 E3        30.15S
LEWISTON, ID   CLEAR     78  42  27 E5        30.07F
WALLA WALLA    CLEAR     77  52  41 NE9       30.05S
PENDLETON, OR  CLEAR     75  47  36 NE8       30.05S
$$




USA.gov is the U.S. government's official web portal to all federal, state and local government web resources and services.